Location: Axtheid
(49.6213°N, 11.8205°E)
Time: 18:08:23
(UTC+00:00)

Cosmos 2098 Rocket - Visible Passes

Search period start: 14 May 2021 00:00
Search period end: 24 May 2021 00:00
Orbit: 367 x 1178 km, 82.9° (Epoch: 13 May)

Date Brightness Start Highest point End Pass type
(mag) Time Alt. Az. Time Alt. Az. Time Alt. Az.
14 May 7.5 02:48:08 10° E 02:49:53 11° ENE 02:51:40 10° NE visible
17 May 7.1 02:41:29 10° ESE 02:45:19 15° ENE 02:49:12 10° NE visible
20 May 6.8 02:35:49 10° ESE 02:40:48 20° ENE 02:45:48 10° NE visible
21 May 7.1 02:03:19 10° E 02:06:17 13° ENE 02:09:15 10° NE visible
23 May 6.6 02:30:34 10° SE 02:36:21 26° E 02:42:02 10° NNE visible
